Weather in Giurgiu

Romania     43°53′44″N   25°57′57″E
temp.,
°C
wind,
m/s
gust,
m/s
humid.,
%
clouds,
%
prec.,
mm/h
press.,
hPa
HPBL,
m
23 may, mon
mon2300:00+17ene5116751 0.1 1009369
03:00+15e357585 0.1 1010100
06:00+15ne3673100 0.0 1010200
09:00+17ene4564100 0.1 1010556
12:00+20ene43498 0.0 10101318
15:00+22ene324687 0.0 10101611
18:00+20e565516 0.0 1010838
21:00+16e4867100 0.1 1010188
24 may, tue
tue2400:00+16ese4963100 0.0 1012282
03:00+13e497319 0.0 1012167
06:00+12ene49775 0.0 1012181
09:00+18e57609 0.0 1013586
12:00+22ese554644 0.0 10131511
15:00+24se324375 0.0 10122239
18:00+20sw346698 0.0 1012122
21:00+17sse227127 0.0 101316
25 may, wed
wed2500:00+15e338959 0.0 101535
03:00+14ese348397 0.0 101552
06:00+12e338711 0.0 101643
09:00+18se33645 0.0 1017397
12:00+24se33515 0.0 10171084
15:00+27ese22455 0.0 10161596
18:00+27e22478 0.0 10151575
21:00+21se597275 0.0 1016237
26 may, thu
thu2600:00+17se3381100 0.0 101744
03:00+16se11896 0.0 101711
06:00+16nne11905 0.0 101711
09:00+21nw6975100 0.9 1020474
12:00+26wsw565521 0.0 1018751
15:00+29w564451 0.0 10181642
18:00+30wnw464632 0.0 10172238
21:00+20e6118134 0.1 1017194
27 may, fri
fri2700:00+19ene348547 0.1 101860
03:00+17e379494 1.4 1019137
06:00+16ene339411 0.0 101857
09:00+21e23775 0.0 1019393
12:00+26e33575 0.0 10181083
15:00+30wnw12465 0.0 10151918
18:00+29nnw224314 0.0 10131877
21:00+24ne335794 0.0 101356